Overview Statistics Trail Chart Weather Telemetry Raw packets
 

This is the latest recevied weather packets stored in our database for station/object EA4HRG-10. If no packets are shown the sender has not sent any weather packets the latest 10 day(s).

<< 1 2 3 4 5 >>
Time Temp. Humidity Pressure Rain* Wind** Luminosity Snow
1788597640 28.33° C 27% 1019.7 hPa - - - -
1788596740 23.89° C 38% 1021.3 hPa - - - -
1788595840 22.22° C 42% 1022.1 hPa - - - -
1788594940 21.11° C 43% 1022.3 hPa - - - -
1788594040 20.56° C 45% 1022.7 hPa - - - -
1788593140 19.44° C 49% 1023.1 hPa - - - -
1788592240 18.89° C 52% 1023.5 hPa - - - -
1788591340 17.78° C 54% 1023.6 hPa - - - -
1788590440 17.22° C 54% 1023.9 hPa - - - -
1788589540 16.11° C 56% 1024.1 hPa - - - -
1788588640 15° C 57% 1024.3 hPa - - - -
1788587740 15° C 58% 1024.3 hPa - - - -
1788586840 15° C 59% 1024.3 hPa - - - -
1788585940 15° C 58% 1024.2 hPa - - - -
1788585040 15° C 58% 1023.9 hPa - - - -
1788584140 15° C 56% 1023.6 hPa - - - -
1788583240 15.56° C 55% 1023.5 hPa - - - -
1788582340 15.56° C 55% 1023.5 hPa - - - -
1788581440 15.56° C 54% 1023.4 hPa - - - -
1788580540 16.11° C 53% 1023.6 hPa - - - -
1788579640 16.67° C 52% 1023.4 hPa - - - -
1788578740 16.67° C 51% 1023.2 hPa - - - -
1788577840 17.22° C 49% 1023 hPa - - - -
1788576940 17.22° C 49% 1023 hPa - - - -
1788576040 17.22° C 48% 1023 hPa - - - -

* Rain since midnight (hover to see other rain measurements)
** Current wind speed in m/s (hover to see current wind gust speed)